Flag for U.S.A. Weather past 2 weeks in Kansas City, Missouri, U.S.A.

Now
68 °F

Passing clouds.


Feels Like: 68 °F
Forecast: 57 / 65 °F
Wind: 5 mph from South

Location: Kansas City Downtown Airport

Current Time: May 29, 2015 at 11:50:43 PM

Latest Report: May 29, 2015 at 10:54 PM


Visibility: 10 mi

Pressure: 29.97 "Hg

Humidity: 84%

Dew point: 63 °F

Location of Kansas CityLocation

Historic Weather in Kansas City — Graph

°F

Kansas City temperature yesterday

Maximum temperature yesterday: 73 °F (at 3:54 PM)
Minimum temperature yesterday: 65 °F (at 7:54 AM)
Average temperature yesterday: 69 °F

Past Weeks' High & Low Weather Summary

 TemperatureHumidityPressure
High84 °F (May 27, 3:54 PM)94% (May 15, 3:56 AM)30.34 "Hg (May 15, 3:56 AM)
Low47 °F (May 19, 4:54 AM)29% (May 27, 3:54 PM)29.65 "Hg (May 17, 2:54 AM)
Average66 °F71%30.01 "Hg
* Reported May 14 9:54 PM — May 29 9:54 PM, Kansas City, Weather by CustomWeather, © 2015

Note: Actual official high and low records may vary slightly from our data, if they occured in-between our weather recording intervals... More about our weather records

Advertising

Kansas City weather history for previous 24 hours

 ConditionsComfort  
Time TempWeatherWind HumidityBarometerVisibility
9:54 PM
Fri, May 29
67 °FClear.No wind87%29.96 "Hg10 mi
8:54 PM69 °FSunny.3 mph81%29.93 "Hg10 mi
7:54 PM70 °FSunny.6 mph79%29.93 "Hg10 mi
6:54 PM71 °FPassing clouds.12 mph76%29.92 "Hg10 mi
5:54 PM71 °FSunny.6 mph78%29.93 "Hg10 mi
4:54 PM70 °FLight rain. Overcast.3 mph84%29.94 "Hg10 mi
3:54 PM70 °FLight rain. Overcast.12 mph84%29.93 "Hg10 mi
2:54 PM70 °FLight rain. Overcast.6 mph84%29.96 "Hg8 mi
1:54 PM70 °FLight rain. Overcast.5 mph84%29.98 "Hg7 mi
12:54 PM70 °FRain. Overcast.6 mph84%29.99 "Hg4 mi
11:54 AM71 °FLight rain. Overcast.7 mph78%29.98 "Hg10 mi
10:54 AM71 °FPassing clouds.9 mph76%29.96 "Hg10 mi
9:54 AM69 °FCloudy.9 mph79%29.96 "Hg10 mi
8:54 AM68 °FBroken clouds.10 mph82%29.95 "Hg10 mi
7:54 AM67 °FLight rain. Overcast.8 mph85%29.93 "Hg10 mi
6:54 AM67 °FRain. Fog.13 mph90%29.95 "Hg5 mi
5:54 AM66 °FLight rain. Low clouds.6 mph87%29.93 "Hg10 mi
4:54 AM65 °FLow clouds.5 mph91%29.91 "Hg10 mi
3:54 AM65 °FMostly cloudy.5 mph87%29.91 "Hg10 mi
2:54 AM65 °FPassing clouds.3 mph87%29.93 "Hg10 mi
1:54 AM66 °FClear.No wind84%29.93 "Hg10 mi
12:54 AM67 °FClear.7 mph85%29.95 "Hg10 mi
11:54 PM
Thu, May 28
68 °FPassing clouds.No wind84%29.98 "Hg10 mi
Weather by CustomWeather, © 2015

See weather overviewHow to use our weather pages